Date String (YYYY-MM-DD hh:mm:ss) UTC,Instrument flags,Ambient pressure (hPa),Sample flow (lpm),Bypass flow (lpm),Sample temperature (°C),Ambient temperature (°C),ASC tube jacket temperature (°C),LED temperature (°C),Box temperature (°C),Sample RH (%),Span deviation,Mass concentration (μg/m³),Mass concentration (μg/m³),Mass concentration (μg/m³)
DateTimeUTC,F1_M11,P_M11,Q1_M11,Q2_M11,T1_M11,T2_M11,T3_M11,T4_M11,T5_M11,U1_M11,ZSPAN_M11,X0_M11,X2_M11,X1_M11
2022-01-23 06:00:00,,0831.2,5.00,0.00,22.6,23.1,00.0,31.5,24.6,10.1,0000.0,0007.50,0003.08,0002.82
2022-01-23 06:01:00,,0831.2,5.00,0.00,22.6,22.9,00.0,31.5,24.6,10.1,0000.0,0007.48,0003.05,0002.80
2022-01-23 06:02:00,,0831.2,4.99,0.00,22.6,22.7,00.0,31.5,24.5,10.0,0000.0,0006.38,0002.99,0002.75
2022-01-23 06:03:00,,0831.2,4.99,0.00,22.6,22.5,00.0,31.5,24.5,09.8,0000.0,0004.57,0002.92,0002.69
2022-01-23 06:04:00,,0831.2,5.00,0.00,22.6,22.4,00.0,31.5,24.4,09.7,0000.0,0004.27,0002.83,0002.61
2022-01-23 06:05:00,,0831.2,5.00,0.00,22.6,22.3,00.0,31.5,24.4,09.8,0000.0,0003.26,0002.73,0002.53
2022-01-23 06:06:00,,0831.2,5.00,0.00,22.6,22.2,00.0,31.5,24.4,09.6,0000.0,0003.20,0002.63,0002.42
2022-01-23 06:07:00,,0831.3,5.00,0.00,22.6,22.1,00.0,31.5,24.3,09.6,0000.0,0003.11,0002.53,0002.32
2022-01-23 06:08:00,,0831.3,4.99,0.00,22.6,22.0,00.0,31.5,24.3,09.7,0000.0,0003.11,0002.51,0002.29
2022-01-23 06:09:00,,0831.4,5.02,0.00,22.5,22.0,00.0,31.5,24.3,09.7,0000.0,0003.05,0002.46,0002.24
2022-01-23 06:10:00,,0831.4,4.99,0.00,22.5,21.9,00.0,31.5,24.3,09.4,0000.0,0002.78,0002.35,0002.15
2022-01-23 06:11:00,,0831.4,5.00,0.00,22.5,21.9,00.0,31.5,24.3,09.4,0000.0,0002.50,0002.18,0002.02
2022-01-23 06:12:00,,0831.4,5.00,0.00,22.5,21.9,00.0,31.5,24.2,09.2,0000.0,0002.36,0002.05,0001.89
2022-01-23 06:13:00,,0831.4,5.00,0.00,22.5,21.8,00.0,31.5,24.2,09.1,0000.0,0002.28,0001.96,0001.80
2022-01-23 06:14:00,,0831.4,5.01,0.00,22.4,21.8,00.0,31.5,24.2,09.1,0000.0,0002.21,0001.89,0001.74
2022-01-23 06:15:00,,0831.4,4.99,0.00,22.4,21.8,00.0,31.5,24.1,09.1,0000.0,0002.17,0001.84,0001.68
2022-01-23 06:16:00,,0831.3,5.00,0.00,22.4,21.7,00.0,31.5,24.1,09.2,0000.0,0002.12,0001.78,0001.62
2022-01-23 06:17:00,,0831.1,5.00,0.00,22.4,21.7,00.0,31.5,24.1,09.2,0000.0,0002.08,0001.74,0001.58
2022-01-23 06:18:00,,0831.2,4.99,0.00,22.4,21.7,00.0,31.5,24.1,09.2,0000.0,0002.02,0001.68,0001.52
2022-01-23 06:19:00,,0831.1,5.01,0.00,22.4,21.7,00.0,31.5,24.1,09.1,0000.0,0001.87,0001.56,0001.41
2022-01-23 06:20:00,,0831.1,5.00,0.00,22.4,21.7,00.0,31.4,24.0,09.3,0000.0,0001.74,0001.45,0001.33
2022-01-23 06:21:00,,0831.2,4.99,0.00,22.3,21.6,00.0,31.4,24.0,09.1,0000.0,0001.73,0001.42,0001.30
2022-01-23 06:22:00,,0831.2,5.01,0.00,22.3,21.6,00.0,31.4,24.0,09.1,0000.0,0001.79,0001.43,0001.29
2022-01-23 06:23:00,,0831.1,4.99,0.00,22.3,21.6,00.0,31.4,24.0,09.1,0000.0,0001.82,0001.44,0001.29
2022-01-23 06:24:00,,0831.1,5.01,0.00,22.3,21.5,00.0,31.4,23.9,09.1,0000.0,0001.77,0001.41,0001.27
2022-01-23 06:25:00,,0831.2,4.98,0.00,22.3,21.7,00.0,31.4,24.0,09.0,0000.0,0001.73,0001.38,0001.25
2022-01-23 06:26:00,,0831.1,5.01,0.00,22.4,22.4,00.0,31.4,24.2,09.0,0000.0,0001.74,0001.39,0001.25
2022-01-23 06:27:00,,0831.1,5.00,0.00,22.5,23.0,00.0,31.5,24.5,08.9,0000.0,0001.72,0001.37,0001.23
2022-01-23 06:28:00,,0831.2,5.00,0.00,22.6,23.0,00.0,31.5,24.6,08.7,0000.0,0001.73,0001.37,0001.23
2022-01-23 06:29:00,,0831.2,5.00,0.00,22.6,22.8,00.0,31.5,24.6,08.6,0000.0,0001.72,0001.36,0001.22
2022-01-23 06:30:00,,0831.1,4.99,0.00,22.6,22.6,00.0,31.5,24.5,08.7,0000.0,0001.74,0001.37,0001.22
2022-01-23 06:31:00,,0831.2,5.00,0.00,22.6,22.4,00.0,31.5,24.4,08.9,0000.0,0001.75,0001.37,0001.21
2022-01-23 06:32:00,,0831.2,4.99,0.00,22.6,22.3,00.0,31.5,24.4,09.0,0000.0,0001.75,0001.38,0001.21
2022-01-23 06:33:00,,0831.2,5.01,0.00,22.6,22.2,00.0,31.5,24.3,09.0,0000.0,0001.72,0001.37,0001.19
2022-01-23 06:34:00,,0831.2,4.98,0.00,22.5,22.1,00.0,31.5,24.3,09.0,0000.0,0001.79,0001.34,0001.18
2022-01-23 06:35:00,,0831.2,5.01,0.00,22.5,22.0,00.0,31.5,24.3,09.0,0000.0,0001.90,0001.34,0001.19
2022-01-23 06:36:00,,0831.2,4.99,0.00,22.5,22.0,00.0,31.5,24.3,08.9,0000.0,0001.90,0001.34,0001.19
2022-01-23 06:37:00,,0831.1,5.00,0.00,22.5,21.9,00.0,31.5,24.3,09.0,0000.0,0001.88,0001.33,0001.19
2022-01-23 06:38:00,,0831.1,4.99,0.00,22.5,21.9,00.0,31.5,24.2,09.1,0000.0,0001.88,0001.33,0001.19
2022-01-23 06:39:00,,0831.1,5.01,0.00,22.5,21.9,00.0,31.5,24.2,09.3,0000.0,0001.84,0001.31,0001.18
2022-01-23 06:40:00,,0831.2,4.99,0.00,22.5,21.8,00.0,31.5,24.2,09.0,0000.0,0001.83,0001.31,0001.19
2022-01-23 06:41:00,,0831.2,5.00,0.00,22.5,21.8,00.0,31.5,24.2,08.9,0000.0,0001.81,0001.30,0001.20
2022-01-23 06:42:00,,0831.2,5.00,0.00,22.4,21.8,00.0,31.5,24.2,08.9,0000.0,0001.80,0001.30,0001.20
2022-01-23 06:43:00,,0831.2,5.00,0.00,22.4,21.8,00.0,31.5,24.2,08.9,0000.0,0001.74,0001.25,0001.19
2022-01-23 06:44:00,,0831.2,4.98,0.00,22.4,21.8,00.0,31.5,24.2,09.1,0000.0,0001.70,0001.24,0001.19
2022-01-23 06:45:00,,0831.2,5.01,0.00,22.4,21.8,00.0,31.5,24.2,09.4,0000.0,0001.59,0001.24,0001.19
2022-01-23 06:46:00,,0831.2,4.99,0.00,22.4,21.8,00.0,31.5,24.2,09.3,0000.0,0001.48,0001.25,0001.20
2022-01-23 06:47:00,,0831.2,5.02,0.00,22.4,21.7,00.0,31.4,24.1,09.3,0000.0,0002.06,0001.26,0001.19
2022-01-23 06:48:00,,0831.1,4.99,0.00,22.4,21.7,00.0,31.4,24.1,09.2,0000.0,0002.68,0001.24,0001.18
2022-01-23 06:49:00,,0831.1,5.01,0.00,22.4,21.7,00.0,31.4,24.1,09.1,0000.0,0002.66,0001.23,0001.17
2022-01-23 06:50:00,,0831.1,4.98,0.00,22.3,21.7,00.0,31.4,24.1,09.0,0000.0,0002.66,0001.23,0001.17
2022-01-23 06:51:00,,0831.1,5.02,0.00,22.3,21.7,00.0,31.4,24.1,09.0,0000.0,0002.67,0001.23,0001.17
2022-01-23 06:52:00,,0831.1,5.00,0.00,22.3,21.6,00.0,31.4,24.0,09.0,0000.0,0002.69,0001.24,0001.18
2022-01-23 06:53:00,,0831.1,5.00,0.00,22.3,21.7,00.0,31.4,24.0,09.0,0000.0,0002.70,0001.25,0001.18
2022-01-23 06:54:00,,0831.2,5.01,0.00,22.4,22.3,00.0,31.4,24.2,08.9,0000.0,0002.70,0001.25,0001.18
2022-01-23 06:55:00,,0831.2,5.00,0.00,22.5,23.0,00.0,31.5,24.5,08.8,0000.0,0002.70,0001.25,0001.18
2022-01-23 06:56:00,,0831.2,5.01,0.00,22.6,23.1,00.0,31.5,24.6,08.7,0000.0,0002.76,0001.26,0001.18
2022-01-23 06:57:00,,0831.2,4.99,0.00,22.7,22.9,00.0,31.5,24.6,08.9,0000.0,0002.71,0001.23,0001.17
2022-01-23 06:58:00,,0831.1,5.00,0.00,22.7,22.7,00.0,31.5,24.6,09.0,0000.0,0002.27,0001.22,0001.18
2022-01-23 06:59:00,,0831.2,5.01,0.00,22.7,22.6,00.0,31.5,24.5,08.9,0000.0,0001.48,0001.23,0001.18
